Date String (YYYY-MM-DD hh:mm:ss) UTC,Instrument flags,absolute air pressure of the measurement (hPa),sample flow rate (lpm),inlet stack bypass flow (lpm),air temperature of the measurement (°C),ambient temperature measured by the external sensor (°C),aerosol sample conditioner tube jacket temperature (°C),OPC LED temperature (°C),internal box temperature (°C),relative humidity of the measurement (%),span deviation,mass concentration of particles derived from Lorenz-Mie calculation of OPC scattering (μg/m³),mass concentration of particles derived from Lorenz-Mie calculation of OPC scattering (μg/m³),mass concentration of particles derived from Lorenz-Mie calculation of OPC scattering (μg/m³)
DateTimeUTC,F1_M11,P_M11,Q1_M11,Q2_M11,T1_M11,T2_M11,T3_M11,T4_M11,T5_M11,U1_M11,ZSPAN_M11,X0_M11,X2_M11,X1_M11
2024-03-22 04:00:00,SystemResetWarning,0825.9,5.00,000.00,024.7,023.5,000.0,033.5,026.5,16.3,0000.0,0005.06,0001.95,0001.24
2024-03-22 04:01:00,SystemResetWarning,0826.0,5.00,000.00,024.7,023.5,000.0,033.4,026.5,16.5,0000.0,0005.04,0001.91,0001.24
2024-03-22 04:02:00,SystemResetWarning,0826.0,5.00,000.00,024.7,023.5,000.0,033.4,026.5,16.4,0000.0,0004.99,0001.89,0001.23
2024-03-22 04:03:00,SystemResetWarning,0826.1,5.00,000.00,024.6,023.4,000.0,033.4,026.5,16.5,0000.0,0005.25,0001.92,0001.21
2024-03-22 04:04:00,SystemResetWarning,0826.1,5.00,000.00,024.6,023.4,000.0,033.4,026.4,16.6,0000.0,0005.27,0001.91,0001.19
2024-03-22 04:05:00,SystemResetWarning,0826.1,5.00,000.00,024.6,023.4,000.0,033.4,026.4,16.6,0000.0,0005.29,0001.91,0001.18
2024-03-22 04:06:00,SystemResetWarning,0826.2,5.00,000.00,024.6,023.3,000.0,033.3,026.4,16.8,0000.0,0005.35,0001.93,0001.19
2024-03-22 04:07:00,SystemResetWarning,0826.2,4.99,000.00,024.5,023.2,000.0,033.3,026.3,16.8,0000.0,0004.91,0001.93,0001.19
2024-03-22 04:08:00,SystemResetWarning,0826.2,4.99,000.00,024.5,023.2,000.0,033.3,026.3,16.9,0000.0,0004.92,0001.98,0001.20
2024-03-22 04:09:00,SystemResetWarning,0826.2,5.01,000.00,024.5,023.2,000.0,033.3,026.3,17.0,0000.0,0003.90,0001.96,0001.20
2024-03-22 04:10:00,SystemResetWarning,0826.2,5.01,000.00,024.5,023.2,000.0,033.3,026.3,17.2,0000.0,0004.21,0001.94,0001.20
2024-03-22 04:11:00,SystemResetWarning,0826.2,5.00,000.00,024.4,023.1,000.0,033.2,026.2,17.3,0000.0,0004.57,0001.97,0001.19
2024-03-22 04:12:00,SystemResetWarning,0826.2,5.00,000.00,024.4,023.1,000.0,033.2,026.2,17.5,0000.0,0004.81,0002.06,0001.20
2024-03-22 04:13:00,SystemResetWarning,0826.2,5.00,000.00,024.4,023.0,000.0,033.2,026.2,17.6,0000.0,0004.97,0002.13,0001.22
2024-03-22 04:14:00,SystemResetWarning,0826.3,5.00,000.00,024.4,023.0,000.0,033.2,026.2,17.8,0000.0,0004.58,0002.09,0001.23
2024-03-22 04:15:00,SystemResetWarning,0826.4,5.00,000.00,024.3,023.0,000.0,033.2,026.1,17.9,0000.0,0004.39,0002.04,0001.24
2024-03-22 04:16:00,SystemResetWarning,0826.4,5.00,000.00,024.3,023.0,000.0,033.1,026.1,17.9,0000.0,0004.34,0002.04,0001.24
2024-03-22 04:17:00,SystemResetWarning,0826.4,4.99,000.00,024.3,023.0,000.0,033.1,026.1,18.0,0000.0,0004.17,0002.00,0001.24
2024-03-22 04:18:00,SystemResetWarning,0826.4,5.00,000.00,024.3,023.0,000.0,033.1,026.1,18.1,0000.0,0004.21,0002.01,0001.25
2024-03-22 04:19:00,SystemResetWarning,0826.4,5.00,000.00,024.3,022.9,000.0,033.1,026.1,18.2,0000.0,0004.33,0002.01,0001.26
2024-03-22 04:20:00,SystemResetWarning,0826.4,5.01,000.00,024.2,022.9,000.0,033.1,026.0,18.3,0000.0,0004.53,0002.07,0001.28
2024-03-22 04:21:00,SystemResetWarning,0826.4,5.00,000.00,024.2,022.9,000.0,033.0,026.0,18.3,0000.0,0004.54,0002.16,0001.28
2024-03-22 04:22:00,SystemResetWarning,0826.4,5.00,000.00,024.2,022.8,000.0,033.0,026.0,18.4,0000.0,0004.25,0002.23,0001.29
2024-03-22 04:23:00,SystemResetWarning,0826.4,4.99,000.00,024.2,022.8,000.0,033.0,026.0,18.5,0000.0,0004.16,0002.20,0001.29
2024-03-22 04:24:00,SystemResetWarning,0826.5,4.99,000.00,024.1,022.7,000.0,033.0,025.9,18.5,0000.0,0004.12,0002.17,0001.28
2024-03-22 04:25:00,SystemResetWarning,0826.6,5.00,000.00,024.1,022.7,000.0,032.9,025.9,18.7,0000.0,0004.03,0002.09,0001.27
2024-03-22 04:26:00,SystemResetWarning,0826.6,5.00,000.00,024.1,022.7,000.0,032.9,025.9,18.8,0000.0,0004.78,0002.14,0001.28
2024-03-22 04:27:00,SystemResetWarning,0826.6,5.00,000.00,024.1,022.6,000.0,032.9,025.9,18.9,0000.0,0005.70,0002.24,0001.29
2024-03-22 04:28:00,SystemResetWarning,0826.6,5.01,000.00,024.0,022.6,000.0,032.9,025.8,19.1,0000.0,0005.79,0002.26,0001.30
2024-03-22 04:29:00,SystemResetWarning,0826.6,4.99,000.00,024.0,022.6,000.0,032.9,025.7,19.1,0000.0,0005.83,0002.27,0001.30
2024-03-22 04:30:00,SystemResetWarning,0826.6,5.00,000.00,024.0,022.6,000.0,032.8,025.7,18.8,0000.0,0005.70,0002.24,0001.29
2024-03-22 04:31:00,SystemResetWarning,0826.7,5.00,000.00,024.0,022.5,000.0,032.8,025.7,19.2,0000.0,0005.69,0002.17,0001.26
2024-03-22 04:32:00,SystemResetWarning,0826.6,5.00,000.00,023.9,022.5,000.0,032.8,025.7,19.1,0000.0,0005.47,0002.09,0001.27
2024-03-22 04:33:00,SystemResetWarning,0826.7,5.00,000.00,023.9,022.5,000.0,032.8,025.6,19.0,0000.0,0005.35,0002.02,0001.27
2024-03-22 04:34:00,SystemResetWarning,0826.8,4.99,000.00,023.9,022.5,000.0,032.7,025.6,18.7,0000.0,0005.42,0001.98,0001.26
2024-03-22 04:35:00,SystemResetWarning,0826.8,5.00,000.00,023.9,022.5,000.0,032.7,025.6,18.9,0000.0,0006.77,0002.01,0001.25
2024-03-22 04:36:00,SystemResetWarning,0826.8,5.00,000.00,023.9,022.6,000.0,032.7,025.6,18.1,0000.0,0007.08,0002.03,0001.24
2024-03-22 04:37:00,SystemResetWarning,0826.8,5.00,000.00,023.9,022.6,000.0,032.7,025.6,18.4,0000.0,0006.62,0002.02,0001.22
2024-03-22 04:38:00,SystemResetWarning,0826.8,5.00,000.00,023.8,022.6,000.0,032.7,025.6,17.5,0000.0,0007.03,0001.98,0001.20
2024-03-22 04:39:00,SystemResetWarning,0826.7,5.00,000.00,023.8,022.6,000.0,032.6,025.6,17.5,0000.0,0007.38,0001.99,0001.19
2024-03-22 04:40:00,SystemResetWarning,0826.8,5.00,000.00,023.8,022.7,000.0,032.6,025.6,15.6,0000.0,0007.39,0002.01,0001.18
2024-03-22 04:41:00,SystemResetWarning,0826.9,5.00,000.00,023.8,022.7,000.0,032.6,025.7,14.7,0000.0,0007.38,0002.01,0001.17
2024-03-22 04:42:00,SystemResetWarning,0826.9,5.01,000.00,023.8,022.7,000.0,032.6,025.7,14.7,0000.0,0007.50,0002.00,0001.18
2024-03-22 04:43:00,SystemResetWarning,0826.9,5.00,000.00,023.8,022.8,000.0,032.6,025.7,15.0,0000.0,0007.59,0002.00,0001.17
2024-03-22 04:44:00,SystemResetWarning,0827.0,5.00,000.00,023.8,022.8,000.0,032.6,025.7,15.1,0000.0,0007.62,0002.00,0001.17
2024-03-22 04:45:00,SystemResetWarning,0827.0,5.00,000.00,023.8,022.8,000.0,032.6,025.7,14.8,0000.0,0007.61,0001.99,0001.15
2024-03-22 04:46:00,SystemResetWarning,0826.9,5.00,000.00,023.8,022.8,000.0,032.6,025.7,14.1,0000.0,0006.67,0002.01,0001.15
2024-03-22 04:47:00,SystemResetWarning,0827.0,4.99,000.00,023.8,022.8,000.0,032.6,025.7,13.5,0000.0,0006.42,0001.99,0001.16
2024-03-22 04:48:00,SystemResetWarning,0827.0,5.00,000.00,023.9,022.9,000.0,032.6,025.7,13.9,0000.0,0006.67,0001.97,0001.15
2024-03-22 04:49:00,SystemResetWarning,0827.0,5.00,000.00,023.9,022.9,000.0,032.6,025.7,14.3,0000.0,0006.88,0001.96,0001.14
2024-03-22 04:50:00,SystemResetWarning,0827.0,5.01,000.00,023.9,022.9,000.0,032.5,025.7,14.8,0000.0,0006.33,0001.95,0001.13
2024-03-22 04:51:00,SystemResetWarning,0827.0,5.01,000.00,023.9,022.9,000.0,032.5,025.7,15.0,0000.0,0006.37,0001.93,0001.13
2024-03-22 04:52:00,SystemResetWarning,0827.0,5.01,000.00,023.9,022.9,000.0,032.5,025.7,13.9,0000.0,0006.41,0001.93,0001.13
2024-03-22 04:53:00,SystemResetWarning,0827.1,5.00,000.00,023.9,022.9,000.0,032.5,025.7,13.7,0000.0,0007.10,0002.01,0001.12
2024-03-22 04:54:00,SystemResetWarning,0827.1,5.00,000.00,023.9,023.0,000.0,032.5,025.7,13.6,0000.0,0007.53,0002.02,0001.11
2024-03-22 04:55:00,SystemResetWarning,0827.2,5.00,000.00,023.9,023.0,000.0,032.5,025.7,14.1,0000.0,0007.63,0002.01,0001.11
2024-03-22 04:56:00,SystemResetWarning,0827.2,5.00,000.00,023.9,023.0,000.0,032.5,025.8,14.0,0000.0,0007.79,0002.03,0001.13
2024-03-22 04:57:00,SystemResetWarning,0827.3,4.99,000.00,023.9,023.0,000.0,032.5,025.7,14.1,0000.0,0008.24,0001.99,0001.15
2024-03-22 04:58:00,SystemResetWarning,0827.4,5.00,000.00,023.9,023.0,000.0,032.5,025.8,14.2,0000.0,0008.24,0002.01,0001.15
2024-03-22 04:59:00,SystemResetWarning,0827.4,5.00,000.00,023.9,023.0,000.0,032.5,025.8,14.8,0000.0,0007.97,0002.02,0001.15
